Home > Time Zones > World Clock > Weather > India > Surat > Past weeks

Flag for India Weather past 2 weeks in Surat, Gujarat, India

Now
77 °F

Clear.


Feels Like: 78 °F
Forecast: 64 / 81 °F
Wind: 3 mph from Northwest

Location: Ahmadabad Airport

Current Time: Dec 22, 2014 at 7:12:36 PM

Latest Report: Dec 22, 2014 at 6:10 PM


Visibility: 2 mi

Pressure: 29.83 "Hg

Humidity: 42%

Dew point: 52 °F

Location of SuratLocation

Historic Weather in Surat — Graph

°F

Surat temperature yesterday

Maximum temperature yesterday: 81 °F (at 1:40 PM)
Minimum temperature yesterday: 50 °F (at 5:40 AM)
Average temperature yesterday: 64 °F

Past Weeks' High & Low Weather Summary

 TemperatureHumidityPressure
High90 °F (Dec 8, 3:10 PM)88% (Dec 13, 5:10 AM)30.18 "Hg (Dec 13, 5:10 AM)
Low46 °F (Dec 15, 5:40 AM)18% (Dec 15, 2:10 PM)29.80 "Hg (Dec 12, 4:10 PM)
Average67 °F51%29.98 "Hg
* Reported Dec 7 4:40 PM — Dec 22 5:10 PM, Surat, Weather by CustomWeather, © 2014

Note: Actual official high and low records may vary slightly from our data, if they occured in-between our weather recording intervals... More about our weather records

Advertising

Surat weather history for previous 24 hours

 ConditionsComfort  
Time TempWeatherWind HumidityBarometerVisibility
5:10 PM
Dec 22
84 °FClear.5 mph27%29.83 "Hg2 mi
4:40 PM84 °FClear.6 mph27%29.83 "Hg2 mi
3:40 PM86 °FClear.5 mph31%29.83 "Hg2 mi
3:10 PM84 °FClear.5 mph33%29.83 "Hg2 mi
2:40 PM84 °FClear.3 mph33%29.83 "Hg2 mi
2:10 PM86 °FClear.5 mph33%29.86 "Hg2 mi
1:40 PM84 °FClear.3 mph33%29.86 "Hg2 mi
12:40 PM82 °FClear.3 mph35%29.92 "Hg2 mi
11:40 AM79 °FClear.3 mph39%29.95 "Hg2 mi
10:40 AM72 °FClear.5 mph47%29.98 "Hg2 mi
10:10 AM70 °FClear.5 mph50%29.98 "Hg2 mi
8:40 AM61 °FHaze.5 mph59%29.95 "Hg1 mi
8:10 AM57 °FHaze.6 mph63%29.95 "Hg1 mi
7:40 AM54 °FHaze.2 mph72%29.95 "Hg1 mi
6:10 AM52 °FHaze.3 mph72%29.92 "Hg2 mi
5:40 AM54 °FHaze.3 mph67%29.89 "Hg2 mi
5:10 AM54 °FHaze.3 mph67%29.89 "Hg2 mi
4:40 AM55 °FHaze.5 mph63%29.89 "Hg2 mi
3:40 AM54 °FHaze.6 mph67%29.89 "Hg2 mi
2:40 AM54 °FHaze.No wind67%29.92 "Hg2 mi
1:40 AM54 °FHaze.No wind77%29.92 "Hg2 mi
1:10 AM55 °FHaze.2 mph82%29.95 "Hg2 mi
12:10 AM55 °FHaze.No wind82%29.95 "Hg2 mi
11:10 PM
Dec 21
57 °FHaze.2 mph82%29.95 "Hg2 mi
10:40 PM59 °FHaze.2 mph72%29.95 "Hg2 mi
9:40 PM61 °FHaze.3 mph63%29.95 "Hg2 mi
8:40 PM64 °FClear.No wind56%29.95 "Hg2 mi
7:40 PM66 °FClear.No wind52%29.92 "Hg2 mi
7:10 PM66 °FClear.No wind52%29.92 "Hg2 mi
Weather by CustomWeather, © 2014

See weather overviewHow to use our weather pages